Change the Weather History Date:

Sunday, September 22, 2013

  Actual Average Record
Temperature  
Mean Temperature 29 °F -  
Max Temperature 34 °F 46 °F 64 °F (2012)
Min Temperature 24 °F 30 °F 24 °F (1996)
Degree Days  
Heating Degree Days 36    
Moisture  
Dew Point 22 °F    
Average Humidity 79    
Maximum Humidity 93    
Minimum Humidity 58    
Precipitation  
Precipitation 0.03 in - - ()
Sea Level Pressure  
Sea Level Pressure 29.37 in    
Wind  
Wind Speed 10 mph (WNW)    
Max Wind Speed 16 mph    
Max Gust Speed 23 mph    
Visibility 5 miles    
Events Fog , Snow    
Averages and records for this station are not official NWS values.
T = Trace of Precipitation, MM = Missing Value Source: NWS Daily Summary

Daily Weather History Graph

Daily Weather History Graph

Search for Another Location

Airport or City:

Trip Planner

Search our weather history database for the weather conditions in past years. The results will help you decide how hot, cold, wet, or windy it might be!

Date:

Astronomy

Sep. 22, 2013 Rise Set
Actual Time 7:27 AM AKDT 7:41 PM AKDT
Civil Twilight 6:39 AM AKDT 8:29 PM AKDT
Nautical Twilight 5:41 AM AKDT 9:27 PM AKDT
Astronomical Twilight 4:34 AM AKDT 10:32 PM AKDT
Moon 8:06 PM AKDT (9/22) 12:24 PM AKDT (9/22)
Length of Visible Light 13h 49m
Length of Day
12h 14m
Waning Gibbous, 87% of the Moon is Illuminated
Sep 22
Waning Gibbous
Sep 26
Last Quarter
Oct 4
New
Oct 11
First Quarter
Oct 18
Full

Hourly Weather History & Observations

Time (AKDT) Temp. Windchill Dew Point Humidity Pressure Visibility Wind Dir Wind Speed Gust Speed Precip Events Conditions
12:53 AM 30.9 °F 22.8 °F 23.0 °F 72% 29.27 in 10.0 mi WNW 9.2 mph - N/A   Overcast
1:13 AM 30.2 °F 21.9 °F 24.8 °F 80% 29.20 in 10.0 mi WNW 9.2 mph - N/A   Overcast
1:53 AM 30.0 °F 21.7 °F 21.9 °F 72% 29.27 in 10.0 mi WNW 9.2 mph - N/A   Overcast
2:09 AM 30.2 °F 21.9 °F 21.2 °F 69% 29.21 in 10.0 mi West 9.2 mph - N/A   Overcast
2:21 AM 30.2 °F 22.6 °F 21.2 °F 69% 29.21 in 10.0 mi WNW 8.1 mph - N/A   Overcast
2:30 AM 30.2 °F 23.4 °F 21.2 °F 69% 29.21 in 10.0 mi WNW 6.9 mph - N/A   Overcast
2:53 AM 30.0 °F 20.5 °F 21.0 °F 69% 29.28 in 10.0 mi WNW 11.5 mph - N/A   Overcast
3:17 AM 30.2 °F 21.9 °F 21.2 °F 69% 29.22 in 10.0 mi WNW 9.2 mph - N/A   Overcast
3:32 AM 30.2 °F 23.4 °F 21.2 °F 69% 29.23 in 10.0 mi WNW 6.9 mph - N/A   Overcast
3:53 AM 30.0 °F 21.7 °F 21.0 °F 69% 29.29 in 10.0 mi West 9.2 mph - N/A   Overcast
4:53 AM 30.0 °F 21.7 °F 21.0 °F 69% 29.29 in 10.0 mi WNW 9.2 mph - N/A   Overcast
5:53 AM 30.0 °F 21.7 °F 19.0 °F 64% 29.30 in 10.0 mi WNW 9.2 mph - N/A   Overcast
6:53 AM 28.9 °F 19.8 °F 18.0 °F 64% 29.32 in 10.0 mi WNW 10.4 mph - N/A   Overcast
7:53 AM 28.9 °F 19.8 °F 19.0 °F 67% 29.33 in 10.0 mi WNW 10.4 mph - N/A   Overcast
8:32 AM 28.4 °F 19.7 °F 19.4 °F 69% 29.28 in 10.0 mi WNW 9.2 mph - N/A   Overcast
8:53 AM 28.9 °F 19.8 °F 19.0 °F 67% 29.34 in 10.0 mi WNW 10.4 mph - N/A   Overcast
9:53 AM 28.0 °F 17.5 °F 19.0 °F 69% 29.36 in 9.0 mi WNW 12.7 mph - 0.00 in Snow Light Snow
10:43 AM 28.4 °F 17.0 °F 21.2 °F 74% 29.30 in 9.0 mi WNW 15.0 mph 20.7 mph 0.00 in Snow Light Snow
10:53 AM 28.0 °F 17.5 °F 21.0 °F 75% 29.37 in 9.0 mi WNW 12.7 mph - 0.00 in Snow Light Snow
11:13 AM 28.4 °F 18.5 °F 21.2 °F 74% 29.31 in 9.0 mi WNW 11.5 mph - 0.00 in Snow Light Snow
11:29 AM 28.4 °F 16.6 °F 21.2 °F 74% 29.31 in 9.0 mi WNW 16.1 mph 23.0 mph 0.00 in Snow Light Snow
11:53 AM 28.0 °F 19.3 °F 21.0 °F 75% 29.38 in 9.0 mi WNW 9.2 mph - 0.00 in Snow Light Snow
12:28 PM 28.4 °F 19.1 °F 21.2 °F 74% 29.32 in 2.5 mi WNW 10.4 mph - 0.00 in Snow Light Snow
12:40 PM 28.4 °F 18.0 °F 21.2 °F 74% 29.33 in 1.5 mi WNW 12.7 mph - 0.00 in Snow Light Snow
12:53 PM 28.0 °F 18.1 °F 21.9 °F 78% 29.40 in 1.0 mi NW 11.5 mph - 0.00 in Snow Light Snow
1:44 PM 28.4 °F 18.5 °F 24.8 °F 86% 29.34 in 1.2 mi WNW 11.5 mph - 0.00 in Snow Light Snow
1:53 PM 28.0 °F 18.1 °F 23.0 °F 81% 29.41 in 1.8 mi WNW 11.5 mph - 0.00 in Snow Light Snow
1:55 PM 28.4 °F 19.1 °F 23.0 °F 80% 29.34 in 2.0 mi WNW 10.4 mph - 0.00 in Snow Light Snow
1:59 PM 28.4 °F 19.1 °F 23.0 °F 80% 29.34 in 3.0 mi WNW 10.4 mph - 0.00 in Snow Light Snow
2:25 PM 28.4 °F 19.7 °F 23.0 °F 80% 29.35 in 4.0 mi West 9.2 mph - 0.00 in Snow Light Snow
2:36 PM 28.4 °F 19.7 °F 23.0 °F 80% 29.35 in 2.0 mi WNW 9.2 mph - 0.00 in Snow Light Snow
2:43 PM 28.4 °F 19.1 °F 23.0 °F 80% 29.35 in 1.5 mi NW 10.4 mph - 0.00 in Snow Light Snow
2:53 PM 28.0 °F 20.0 °F 24.1 °F 85% 29.42 in 1.0 mi WNW 8.1 mph - 0.00 in Snow Light Snow
3:04 PM 28.4 °F 20.4 °F 24.8 °F 86% 29.36 in 0.8 mi WNW 8.1 mph - 0.00 in Snow Light Snow
3:20 PM 28.4 °F 19.1 °F 24.8 °F 86% 29.36 in 0.8 mi WNW 10.4 mph - 0.01 in Snow Light Snow
3:28 PM 28.4 °F 18.5 °F 24.8 °F 86% 29.36 in 0.8 mi WNW 11.5 mph - 0.01 in Snow Light Snow
3:43 PM 28.4 °F 18.5 °F 24.8 °F 86% 29.37 in 0.8 mi WNW 11.5 mph - 0.01 in Snow Light Snow
3:50 PM 28.4 °F 19.1 °F 24.8 °F 86% 29.37 in 1.0 mi West 10.4 mph 18.4 mph 0.01 in Snow Light Snow
3:53 PM 28.0 °F 19.3 °F 24.1 °F 85% 29.44 in 1.0 mi WNW 9.2 mph 18.4 mph 0.01 in Snow Light Snow
4:40 PM 26.6 °F 16.8 °F 24.8 °F 93% 29.38 in 1.5 mi WNW 10.4 mph - 0.00 in Snow Light Snow
4:53 PM 27.0 °F 18.0 °F 24.1 °F 89% 29.46 in 2.5 mi WNW 9.2 mph - 0.00 in Snow Light Snow
5:01 PM 26.6 °F 20.0 °F 24.8 °F 93% 29.39 in 1.5 mi WNW 5.8 mph - 0.00 in Snow Light Snow
5:17 PM 26.6 °F 17.5 °F 24.8 °F 93% 29.40 in 1.0 mi WNW 9.2 mph - 0.00 in Snow Light Snow
5:28 PM 26.6 °F 17.5 °F 24.8 °F 93% 29.40 in 0.8 mi WNW 9.2 mph - 0.00 in Snow Light Snow
5:39 PM 26.6 °F 16.8 °F 24.8 °F 93% 29.41 in 0.5 mi WNW 10.4 mph - 0.01 in Fog , Snow Snow
5:53 PM 27.0 °F 17.3 °F 24.1 °F 89% 29.48 in 0.5 mi WNW 10.4 mph - 0.02 in Fog , Snow Snow
6:53 PM 27.0 °F 18.0 °F 24.1 °F 89% 29.50 in 0.8 mi WNW 9.2 mph - 0.01 in Snow Light Snow
7:03 PM 26.6 °F 16.2 °F 23.0 °F 86% 29.43 in 1.0 mi WNW 11.5 mph 17.3 mph 0.00 in Snow Light Snow
7:10 PM 26.6 °F 16.2 °F 23.0 °F 86% 29.43 in 1.5 mi WNW 11.5 mph - 0.00 in Snow Light Snow
7:22 PM 26.6 °F 16.2 °F 23.0 °F 86% 29.43 in 1.8 mi WNW 11.5 mph - 0.00 in Snow Light Snow
7:36 PM 26.6 °F 18.2 °F 23.0 °F 86% 29.44 in 2.0 mi WNW 8.1 mph - 0.00 in Snow Light Snow
7:49 PM 26.6 °F 16.2 °F 23.0 °F 86% 29.44 in 4.0 mi WNW 11.5 mph - 0.00 in Snow Light Snow
7:53 PM 27.0 °F 17.3 °F 23.0 °F 85% 29.52 in 5.0 mi WNW 10.4 mph - 0.00 in Snow Light Snow
8:53 PM 27.0 °F 19.5 °F 23.0 °F 85% 29.54 in 9.0 mi West 6.9 mph - 0.00 in Snow Light Snow
9:53 PM 26.1 °F 19.4 °F 23.0 °F 88% 29.55 in 5.0 mi West 5.8 mph - 0.00 in Snow Light Snow
10:53 PM 26.1 °F 19.4 °F 23.0 °F 88% 29.57 in 9.0 mi WSW 5.8 mph - 0.00 in Snow Light Snow
11:50 PM 26.6 °F 21.2 °F 21.2 °F 80% 29.51 in 10.0 mi West 4.6 mph - 0.00 in   Overcast
11:53 PM 27.0 °F 20.5 °F 21.9 °F 81% 29.58 in 10.0 mi WSW 5.8 mph - 0.00 in   Overcast